Location: Arleux
(50.3632°N, 2.8721°E)
Time: 18:05:02
(UTC+00:00)

Cosmos 1674 Rocket - Pass Details

Date: 15 December 2019
Orbit: 602 x 631 km, 82.5° (Epoch: 27 January)

Event Time Altitude Azimuth Distance (km) Brightness Sun altitude
Exits shadow 06:17:04 11° 332° (NNW) 1,880 5.6 -12.6°
Maximum altitude 06:20:43 33° 270° (W) 1,018 4.2 -12.1°
Drops below altitude 10° 06:24:35 10° 205° (SSW) 1,946 6.1 -11.5°
Sets 06:26:56 0° 196° (SSW) 2,843 7.1 -11.2°
